Location: Maiden
(35.5760°N, 81.2120°W)
Time: 09:40:59
(UTC-04:00)

Tiangong 2 - Visible Passes

Search period start: 19 August 2018 00:00
Search period end: 29 August 2018 00:00
Orbit: 384 x 395 km, 42.8° (Epoch: 19 August)

Date Brightness Start Highest point End Pass type
(mag) Time Alt. Az. Time Alt. Az. Time Alt. Az.
19 Aug 4.4 04:06:55 12° ENE 04:06:55 12° ENE 04:07:13 10° ENE visible
19 Aug 2.4 05:39:14 18° WNW 05:41:04 33° NNW 05:44:01 10° NE visible
20 Aug 2.6 04:44:01 35° NNE 04:44:01 35° NNE 04:46:13 10° NE visible
20 Aug 3.2 06:17:49 10° WNW 06:20:24 22° N 06:23:00 10° NE visible
21 Aug 2.9 05:21:05 19° NW 05:22:20 25° N 05:25:03 10° NE visible
22 Aug 3.8 04:25:50 20° NNE 04:25:50 20° NNE 04:27:11 10° NE visible
22 Aug 3.3 05:59:09 10° NW 06:01:42 21° N 06:04:16 10° NE visible
23 Aug 3.1 05:02:56 20° NNW 05:03:36 22° N 05:06:10 10° NE visible
24 Aug 4.6 04:07:46 12° NE 04:07:46 12° NE 04:08:11 10° NE visible
24 Aug 3.2 05:40:16 10° NW 05:42:58 24° N 05:45:39 10° ENE visible
25 Aug 3.4 04:45:00 21° N 04:45:00 21° N 04:47:25 10° ENE visible
25 Aug 2.2 06:19:05 10° NW 06:22:11 45° NNE 06:25:16 10° E visible
26 Aug 2.8 05:22:20 18° NW 05:24:09 31° NNE 05:27:03 10° E visible
27 Aug 4.0 04:27:28 18° NE 04:27:28 18° NE 04:28:46 10° ENE visible
27 Aug 1.1 06:00:01 10° WNW 06:03:13 82° NNE 06:06:24 10° ESE visible
28 Aug 1.9 05:05:10 48° NNE 05:05:14 48° NNE 05:08:21 10° E visible
